SCP
0 0 0 0 0 0 0 0 0 0 0 0 0 0 0 0 0 0 0 0 0 0 0 0 0 0 0 0 0 0 0 0 0 0 0 0 0 0 0 0 0 0 0
0 0 0 0 0 0 0 0 0 0 0 0 0 0 0 0 0 0 0 0 0 0 0 0 0 0 0 0 0 0 0 0 0 0 0 0 0 0 0 0 0 0 0
0 0 0 0 0 0 0 0 0 0 0 0 0 0 0 0 0 0 0 0 0 0 0 0 0 0 0 0 0 0 0 0 0 0 0 0 0 0 0 0 0 0 0
0 0 0 0 0 0 0 0 0 0 0 0 0 0 0 0 0 0 0 0 0 0 0 0 0 0 0 0 0 0 0 0 0 0 0 0 0 0 0 0 0 0 0
0 0 0 0 0 0 0 0 0 0 0 0 0 0 0 0 0 0 0 0 0 0 0 0 0 0 0 0 0 0 0 0 0 0 0 0 0 0 0 0 0 0 0
0 0 0 0 0 0 0 0 0 0 0 0 0 0 0 0 0 0 0 0 0 0 0 0 0 0 0 0 0 0 0 0 0 0 0 0 0 0 0 0 0 0 0
0 0 0 0 0 0 0 0 0 0 0 0 0 0 0 0 0 0 0 0 0 0 0 0 0 0 0 0 0 0 0 0 0 0 0 0 0 0 0 0 0 0 0
0 0 0 0 0 0 0 0 0 0 0 0 0 0 0 0 0 0 0 0 0 0 0 0 0 0 0 0 0 0 0 0 0 0 0 0 0 0 0 0 0 0 0
0 0 0 0 0 0 0 0 0 0 0 0 0 0 0 0 0 0 0 0 0 0 0 0 0 0 0 0 0 0 0 0 0 0 0 0 0 0 0 0 0 0 0
0 0 0 0 0 0 0 0 0 0 0 0 0 0 0 0 0 0 0 0 0 0 0 0 0 0 0 0 0 0 0 0 0 0 0 0 0 0 0 0 0 0 0
0 0 0 0 0 0 0 0 0 0 0 0 0 0 0 0 0 0 0 0 0 0 0 0 0 0 0 0 0 0 0 0 0 0 0 0 0 0 0 0 0 0 0
0 0 0 0 0 0 0 0 0 0 0 0 0 0 0 0 0 0 0 0 0 0 0 0 0 0 0 0 0 0 0 0 0 0 0 0 0 0 0 0 0 0 0
0 0 0 0 0 0 0 0 0 0 0 0 0 0 0 0 0 0 0 0 0 0 0 0 0 0 0 0 0 0 0 0 0 0 0 0 0 0 0 0 0 0 0
0 0 0 0 0 0 0 0 0 0 0 0 0 0 0 0 0 0 0 0 0 0 0 0 0 0 0 0 0 0 0 0 0 0 0 0 0 0 0 0 0 0 0
0 0 0 0 0 0 0 0 0 0 0 0 0 0 0 0 0 0 0 0 0 0 0 0 0 0 0 0 0 0 0 0 0 0 0 0 0 0 0 0 0 0 0
0 0 0 0 0 0 0 0 0 0 0 0 0 0 0 0 0 0 0 0 0 0 0 0 0 0 0 0 0 0 0 0 0 0 0 0 0 0 0 0 0 0 0
0 0 0 0 0 0 0 0 0 0 0 0 0 0 0 0 0 0 0 0 0 0 0 0 0 0 -0 -0 -0 -0 -0 -0 0 0 0 0 0 0 0 0 0 0 0
0 0 0 0 0 0 0 0 0 0 0 0 0 0 0 0 0 0 0 0 0 0 0 0 0 0 -0 -0 -0 -0 -0 0 0 0 0 0 0 0 0 0 0 0 0
0 0 0 0 0 0 0 0 0 0 0 0 0 0 0 0 0 0 0 0 0 0 0 0 0 0 0 0 0 -0 -0 0 0 0 0 0 0 0 0 0 0 0 0
0 0 0 0 0 0 0 0 0 0 0 0 0 0 0 0 0 0 0 0 0 0 0 0 0 0 0 0 0 0 -0 0 0 0 0 0 0 0 0 0 0 0 0
0 0 0 0 0 0 0 0 0 0 0 0 0 0 0 0 0 0 0 0 0 0 0 0 0 0 0 0 0 0 0 0 0 0 0 0 0 0 0 0 0 0 0
0 0 0 0 0 0 0 0 0 0 0 0 0 0 0 0 0 0 0 0 0 0 0 0 0 0 0 0 0 0 0 0 0 0 0 0 0 0 0 0 0 0 0
0 0 0 0 0 0 0 0 0 0 0 0 0 0 0 0 0 0 0 0 0 0 0 0 0 0 0 0 0 0 0 0 0 0 0 0 0 0 0 0 0 0 0
0 0 0 0 0 0 0 0 0 0 0 0 0 0 0 0 0 0 0 0 0 0 0 0 0 0 0 0 0 0 0 0 0 0 0 0 0 0 0 0 0 0 0
0 0 0 0 0 0 0 0 0 0 0 0 0 0 0 0 0 0 0 0 0 0 0 0 0 0 0 0 0 0 0 0 0 0 0 0 0 0 0 0 0 0 0
0 0 0 0 0 0 0 0 0 0 0 0 0 0 0 0 0 0 0 0 0 0 0 0 0 0 0 0 0 0 0 0 0 0 0 0 0 0 0 0 0 0 0
Wind_Speed
8 7 6 6 6 5 6 5 5 5 4 4 4 4 4 5 5 4 3 8 9 9 9 9 9 8 7 7 6 5 5 4 4 4 4 5 5 5 4 5 5 5 5
8 8 7 7 6 6 6 6 6 5 4 4 4 5 5 5 5 5 4 5 8 9 9 10 9 9 8 7 7 6 5 5 5 5 5 5 5 5 5 5 6 6 6
9 8 7 7 7 6 6 5 5 4 4 4 4 4 4 4 5 5 5 4 4 7 9 10 10 9 8 8 7 6 6 6 5 5 6 6 6 6 7 7 7 8 8
10 9 7 7 7 6 6 6 5 4 4 4 3 3 3 4 5 5 4 4 4 3 6 8 8 8 8 8 8 7 7 6 5 5 5 6 6 7 7 8 8 8 8
10 9 8 7 7 6 5 6 5 4 4 4 4 3 3 3 4 4 5 5 5 4 4 5 7 7 7 8 8 7 7 6 5 5 5 6 7 7 8 8 8 7 8
10 8 7 8 8 6 6 6 6 4 4 4 3 2 2 3 3 4 5 4 4 5 5 4 4 4 6 6 7 7 7 7 6 6 6 7 7 7 7 7 7 7 7
10 8 7 8 8 7 8 7 5 5 3 3 2 0 1 2 3 4 4 4 4 5 5 5 4 3 3 5 6 6 6 7 7 7 7 8 8 7 7 7 7 6 6
10 8 9 8 8 7 8 7 5 4 3 4 4 3 1 2 2 3 3 4 4 3 4 5 4 4 3 2 3 5 5 6 7 8 8 8 8 8 7 7 7 6 6
8 8 9 8 8 8 8 8 8 7 5 4 4 5 4 4 2 2 3 3 4 3 3 3 4 4 4 3 2 3 4 5 7 8 8 7 7 7 7 7 6 5 5
7 7 8 8 8 7 8 8 7 6 7 6 4 3 3 3 3 2 2 2 3 4 4 4 4 4 4 3 3 4 4 4 6 7 7 7 6 6 6 5 5 5 4
6 6 7 7 7 6 7 7 7 6 6 6 4 3 3 2 2 3 3 3 2 3 4 4 4 3 4 3 3 4 5 5 6 7 6 6 6 5 5 4 4 4 4
4 6 6 6 6 6 7 8 8 8 7 6 4 4 4 4 4 3 4 3 3 3 3 3 4 4 3 3 4 5 5 5 5 6 6 6 5 4 3 3 3 4 4
3 4 5 5 5 6 7 6 7 7 8 8 6 5 4 4 3 3 3 3 3 2 2 2 3 3 3 3 3 5 5 5 5 5 5 4 2 2 2 2 3 3 3
3 3 4 4 5 6 7 6 6 6 6 7 7 6 4 4 3 3 4 3 3 3 3 4 2 3 3 3 3 4 3 5 4 4 3 3 2 1 1 2 2 2 3
2 3 3 4 4 4 6 6 5 6 6 7 7 7 5 4 4 4 4 4 5 5 6 4 2 3 3 3 4 3 3 5 5 4 3 2 1 1 1 1 2 2 2
2 2 3 2 2 3 4 5 4 5 6 6 5 6 6 4 4 4 4 4 4 4 5 3 3 2 3 3 5 3 4 5 5 5 4 3 3 2 2 1 1 1 1
1 2 2 3 3 3 3 3 4 5 6 5 5 7 7 5 4 4 4 4 4 4 4 2 1 1 3 4 3 2 2 3 3 5 5 5 4 4 3 2 2 1 1
1 2 2 2 3 3 3 3 4 4 6 6 6 6 6 4 5 4 4 5 5 4 4 4 2 2 3 4 3 3 2 2 2 4 5 5 5 4 4 3 2 1 1
0 1 1 2 3 3 3 3 4 4 4 5 5 6 6 5 6 5 5 5 4 4 3 3 3 2 1 2 2 1 1 1 2 3 5 4 4 4 4 3 3 2 2
1 1 1 2 2 2 3 3 3 4 4 4 4 5 6 7 7 7 6 6 5 4 4 3 3 2 2 2 3 2 2 1 1 1 1 2 3 3 3 4 3 2 2
2 1 1 2 2 2 2 3 3 4 4 4 4 4 5 7 8 8 6 6 6 4 4 4 3 2 3 3 3 3 2 1 1 1 1 1 1 1 1 2 3 3 3
3 2 2 2 2 2 3 4 4 3 3 4 4 4 4 4 6 8 9 9 8 7 6 5 4 5 5 4 3 3 3 2 2 1 1 1 1 1 1 1 3 4 3
4 3 3 2 2 3 4 4 3 3 3 3 3 3 2 3 4 3 4 5 6 8 9 7 6 6 5 6 6 4 4 3 2 2 2 1 1 1 1 2 4 4 4
4 3 3 4 3 4 5 5 5 2 2 3 3 3 3 3 3 3 2 2 2 3 5 4 5 5 4 5 6 6 5 3 2 0 2 1 1 1 1 1 2 3 3
4 3 3 3 3 4 5 6 6 2 2 2 2 2 3 3 4 4 4 3 2 2 2 4 5 5 7 8 8 5 5 3 2 1 1 2 1 0 1 1 2 1 1
3 4 3 3 3 3 5 6 5 1 1 2 2 2 3 3 4 4 3 4 4 3 3 3 3 3 4 6 7 5 6 4 3 2 2 2 1 1 1 1 1 1 2
Wind_Direction
170 167 166 166 167 165 168 169 175 183 192 198 200 196 195 190 185 185 193 195 196 198 200 200 200 202 205 207 211 217 222 230 243 250 256 261 265 270 275 282 285 290 292
171 170 169 171 172 173 174 177 183 187 196 196 203 201 192 184 187 189 194 200 203 202 205 208 211 214 218 219 222 224 231 239 248 253 257 261 263 265 269 275 280 281 284
172 171 173 176 178 176 174 177 183 183 188 194 202 197 188 192 191 194 195 197 202 208 211 215 219 221 224 226 228 234 238 242 247 251 255 258 261 265 267 272 276 277 277
175 171 174 180 179 174 175 178 180 181 188 190 196 197 192 195 198 200 198 199 199 206 213 217 220 221 225 229 236 241 244 245 243 246 255 262 266 269 270 273 275 278 279
177 173 176 177 175 175 178 182 182 180 184 191 197 201 200 199 202 198 202 204 203 201 203 211 214 219 222 229 238 244 247 246 243 246 257 264 269 272 274 275 277 280 281
177 174 174 174 172 174 180 181 179 182 182 183 185 202 219 214 206 206 208 206 203 204 202 206 207 218 221 229 236 242 249 250 249 250 256 262 268 271 276 277 280 282 285
176 177 176 176 176 181 186 180 176 178 184 165 139 205 297 252 230 224 210 204 207 204 198 202 200 198 209 216 227 235 246 254 257 259 259 260 263 267 271 276 282 287 293
177 181 181 180 181 179 183 183 172 175 184 171 158 155 236 293 264 233 212 206 211 206 207 204 198 198 199 200 212 222 237 253 259 264 264 261 260 262 266 269 278 284 291
176 181 184 182 184 182 186 189 183 183 188 194 181 171 175 215 249 264 226 215 208 209 214 202 202 201 198 196 198 208 220 240 256 265 267 262 258 261 261 267 277 284 291
177 180 183 186 187 187 188 191 189 189 183 192 198 205 197 176 183 231 253 225 214 217 216 207 202 202 197 194 192 194 206 230 251 263 267 267 266 265 264 268 278 288 297
179 181 181 185 189 190 191 190 191 192 192 196 195 189 197 209 204 199 236 231 230 229 221 210 202 201 195 193 194 195 201 225 249 259 262 265 267 266 263 268 285 296 298
179 184 182 184 191 194 194 194 194 196 199 200 205 199 189 190 199 199 224 232 236 237 227 218 209 199 195 197 198 192 197 216 237 249 256 260 262 267 270 271 283 299 308
181 190 188 189 198 202 198 195 196 199 198 197 201 212 212 215 199 192 201 226 243 245 226 227 219 201 193 198 205 191 199 208 225 237 245 249 260 271 271 275 286 298 308
183 190 192 196 205 206 201 197 202 206 204 204 209 210 215 219 206 198 194 199 233 245 230 228 207 203 197 193 201 192 206 204 210 219 223 242 248 260 265 272 285 299 315
178 185 199 200 205 204 200 198 206 209 207 210 211 212 218 220 213 212 202 194 200 228 236 220 209 204 203 195 190 194 206 205 201 197 189 189 207 241 254 265 286 300 320
179 184 205 203 202 206 205 204 210 212 211 218 214 214 220 221 217 211 209 215 211 215 235 216 208 205 199 209 195 189 208 194 194 186 189 193 210 224 230 252 275 288 290
198 193 205 204 205 214 211 209 217 211 213 222 221 217 223 215 217 217 210 212 214 206 227 237 207 193 190 199 201 196 192 189 191 192 196 202 208 211 212 226 246 266 271
217 201 200 203 212 220 219 217 226 223 218 220 221 219 225 218 219 217 216 220 220 210 207 220 218 195 204 196 184 188 185 178 190 203 205 205 203 208 212 218 227 229 246
288 210 195 219 228 229 226 226 228 233 232 228 225 224 225 215 224 221 218 222 223 216 204 193 199 200 189 176 156 159 179 199 205 207 203 205 213 219 215 211 213 207 215
334 271 243 249 246 247 243 241 242 244 244 242 236 230 226 222 224 221 219 219 212 208 199 187 187 187 185 176 159 167 190 219 219 187 202 198 213 220 217 208 202 202 213
354 335 302 294 289 266 255 260 256 253 247 247 246 243 240 234 231 228 221 212 202 205 197 193 190 188 188 178 187 173 177 167 240 170 169 218 191 200 223 214 210 216 220
4 358 348 318 300 294 288 278 273 256 248 247 251 252 247 239 237 235 227 219 206 204 203 197 197 203 200 185 161 166 154 151 227 194 154 239 166 210 230 227 241 230 221
3 355 346 336 324 311 314 312 298 270 258 255 249 246 255 245 242 228 227 222 221 218 208 196 196 204 190 181 167 170 176 180 199 180 138 217 204 224 237 245 240 225 219
352 350 342 339 337 333 336 333 327 294 264 261 257 247 239 238 229 209 193 202 228 230 213 203 197 195 186 172 173 172 165 138 100 101 142 182 204 241 297 310 260 228 218
340 343 338 337 335 331 339 343 344 314 290 282 271 255 240 238 230 214 191 191 211 223 177 175 174 172 167 164 157 137 139 140 161 190 160 157 167 2 334 315 312 315 267
329 330 330 327 320 318 327 337 340 322 307 304 301 273 246 242 235 228 209 190 196 202 166 145 139 138 144 154 162 162 158 156 157 184 184 145 143 103 344 314 329 350 353